Radiation Dose at Monitoring Post of Fukushima Daini Nuclear Power Station
Date,Time,MP-1(microSv/h),MP-2(microSv/h),MP-3(microSv/h),MP-4(microSv/h),MP-5(microSv/h),MP-6(microSv/h),MP-7(microSv/h),Wind Direction,Wind Velocity(m/s),Rain
2017/09/15,00:00,0.352,0.214,0.350,0.331,0.319,0.175,0.105,north,3.0,No
2017/09/15,00:10,0.349,0.214,0.353,0.330,0.317,0.174,0.105,north,4.4,No
2017/09/15,00:20,0.353,0.214,0.350,0.328,0.319,0.175,0.105,north,5.0,No
2017/09/15,00:30,0.350,0.215,0.353,0.332,0.319,0.172,0.104,north,3.4,No
2017/09/15,00:40,0.352,0.214,0.351,0.327,0.318,0.174,0.104,north,3.6,No
2017/09/15,00:50,0.351,0.215,0.349,0.331,0.319,0.174,0.104,north,2.4,No
2017/09/15,01:00,0.350,0.213,0.353,0.328,0.316,0.175,0.104,north-northwest,2.2,No
2017/09/15,01:10,0.351,0.214,0.350,0.329,0.320,0.174,0.105,north-northwest,1.9,No
2017/09/15,01:20,0.350,0.214,0.353,0.329,0.316,0.174,0.104,north-northwest,1.3,No
2017/09/15,01:30,0.353,0.215,0.350,0.330,0.320,0.173,0.105,north,1.2,No
2017/09/15,01:40,0.350,0.215,0.352,0.330,0.317,0.174,0.104,northwest,2.0,No
2017/09/15,01:50,0.353,0.215,0.350,0.328,0.320,0.174,0.105,north-northwest,1.4,No
2017/09/15,02:00,0.351,0.215,0.352,0.332,0.318,0.175,0.104,northeast,1.9,No
2017/09/15,02:10,0.351,0.216,0.352,0.329,0.318,0.174,0.104,northeast,3.1,No
2017/09/15,02:20,0.351,0.214,0.351,0.332,0.318,0.174,0.105,north,5.2,No
2017/09/15,02:30,0.351,0.215,0.350,0.329,0.317,0.174,0.105,north-northwest,4.7,No
2017/09/15,02:40,0.351,0.213,0.351,0.332,0.319,0.174,0.105,north-northwest,4.6,No
2017/09/15,02:50,0.349,0.216,0.351,0.328,0.317,0.174,0.104,northwest,3.4,No
2017/09/15,03:00,0.352,0.214,0.351,0.330,0.320,0.174,0.104,north-northwest,4.3,No
2017/09/15,03:10,0.351,0.213,0.352,0.330,0.316,0.174,0.103,north-northwest,5.8,No
2017/09/15,03:20,0.352,0.213,0.351,0.331,0.318,0.173,0.104,north-northwest,6.2,No
2017/09/15,03:30,0.350,0.214,0.352,0.331,0.317,0.174,0.104,north-northwest,6.4,No
2017/09/15,03:40,0.350,0.214,0.350,0.328,0.316,0.174,0.104,north-northwest,7.5,No
2017/09/15,03:50,0.352,0.214,0.351,0.332,0.316,0.174,0.104,north-northwest,7.9,No
2017/09/15,04:00,0.348,0.215,0.349,0.328,0.316,0.173,0.104,north-northwest,7.5,No
2017/09/15,04:10,0.353,0.215,0.352,0.331,0.319,0.174,0.103,north-northwest,6.2,No
2017/09/15,04:20,0.350,0.214,0.351,0.329,0.316,0.173,0.104,north-northwest,8.3,No
2017/09/15,04:30,0.353,0.214,0.351,0.330,0.319,0.175,0.105,north-northwest,8.4,No
2017/09/15,04:40,0.351,0.215,0.352,0.331,0.316,0.173,0.104,north-northwest,7.8,No
2017/09/15,04:50,0.350,0.215,0.350,0.328,0.318,0.174,0.104,north-northwest,4.3,No
2017/09/15,05:00,0.353,0.214,0.352,0.331,0.316,0.174,0.104,north-northwest,4.6,No
2017/09/15,05:10,0.350,0.215,0.351,0.328,0.319,0.175,0.104,north-northwest,4.9,No
2017/09/15,05:20,0.352,0.215,0.354,0.331,0.317,0.174,0.104,north-northwest,5.6,No
2017/09/15,05:30,0.349,0.215,0.350,0.329,0.318,0.175,0.104,northwest,5.1,No
2017/09/15,05:40,0.352,0.214,0.352,0.331,0.319,0.173,0.104,north-northwest,5.2,No
2017/09/15,05:50,0.351,0.214,0.350,0.328,0.318,0.175,0.105,north-northwest,4.4,No
2017/09/15,06:00,0.352,0.215,0.353,0.332,0.317,0.173,0.105,north,3.4,No
2017/09/15,06:10,0.350,0.215,0.351,0.328,0.319,0.174,0.105,northwest,5.1,No
2017/09/15,06:20,0.353,0.215,0.355,0.332,0.317,0.174,0.104,west-northwest,7.0,No
2017/09/15,06:30,0.352,0.215,0.350,0.330,0.319,0.174,0.103,west-northwest,7.7,No
2017/09/15,06:40,0.351,0.213,0.353,0.331,0.318,0.173,0.104,west-northwest,5.7,No
2017/09/15,06:50,0.351,0.215,0.349,0.329,0.318,0.174,0.104,northwest,3.1,No
2017/09/15,07:00,0.350,0.214,0.354,0.329,0.319,0.174,0.103,north-northwest,1.9,No
2017/09/15,07:10,0.352,0.215,0.350,0.329,0.316,0.174,0.103,north,1.4,No
2017/09/15,07:20,0.350,0.214,0.353,0.327,0.319,0.174,0.102,north,4.4,No
2017/09/15,07:30,0.354,0.215,0.349,0.330,0.315,0.174,0.103,northwest,3.9,No
2017/09/15,07:40,0.351,0.213,0.352,0.328,0.318,0.174,0.105,northwest,4.1,No
2017/09/15,07:50,0.352,0.215,0.350,0.327,0.319,0.174,0.104,north-northwest,3.9,No
2017/09/15,08:00,0.354,0.214,0.351,0.330,0.315,0.174,0.104,north-northwest,4.5,No
2017/09/15,08:10,0.350,0.213,0.352,0.328,0.317,0.175,0.103,north-northwest,5.9,No
2017/09/15,08:20,0.354,0.215,0.350,0.326,0.315,0.174,0.103,northwest,6.6,No
2017/09/15,08:30,0.351,0.214,0.352,0.325,0.314,0.172,0.102,north-northwest,6.7,No
2017/09/15,08:40,0.350,0.214,0.350,0.326,0.319,0.175,0.103,north-northwest,6.7,No
2017/09/15,08:50,0.347,0.212,0.352,0.330,0.318,0.173,0.103,north-northwest,8.9,No
2017/09/15,09:00,0.351,0.212,0.352,0.330,0.314,0.174,0.102,northwest,6.0,No
2017/09/15,09:10,0.354,0.212,0.349,0.330,0.315,0.174,0.102,north-northwest,5.6,No
2017/09/15,09:20,0.350,0.213,0.353,0.329,0.318,0.174,0.102,north-northwest,5.9,No
2017/09/15,09:30,0.348,0.213,0.352,0.328,0.317,0.174,0.102,north,6.9,No
2017/09/15,09:40,0.351,0.213,0.351,0.329,0.317,0.174,0.103,north-northwest,7.5,No
2017/09/15,09:50,0.354,0.215,0.354,0.328,0.315,0.174,0.103,north-northwest,7.0,No
2017/09/15,10:00,0.351,0.215,0.350,0.330,0.315,0.174,0.103,north-northwest,7.2,No
2017/09/15,10:10,0.349,0.214,0.353,0.329,0.315,0.174,0.103,north-northwest,6.4,No
2017/09/15,10:20,0.350,0.215,0.353,0.330,0.315,0.174,0.103,northwest,5.0,No
2017/09/15,10:30,0.349,0.215,0.351,0.330,0.315,0.174,0.103,northwest,4.0,No
2017/09/15,10:40,0.349,0.215,0.349,0.332,0.316,0.175,0.102,west,5.7,No
2017/09/15,10:50,0.350,0.215,0.353,0.330,0.316,0.174,0.100,northwest,6.2,No
2017/09/15,11:00,0.349,0.215,0.353,0.330,0.316,0.175,0.100,north-northwest,5.5,No
2017/09/15,11:10,0.349,0.215,0.351,0.330,0.317,0.176,0.100,northwest,5.8,No
2017/09/15,11:20,0.352,0.215,0.350,0.330,0.316,0.175,0.100,north-northwest,5.8,No
2017/09/15,11:30,0.350,0.215,0.349,0.331,0.317,0.175,0.101,north-northwest,7.5,No
2017/09/15,11:40,0.349,0.214,0.349,0.330,0.318,0.175,0.101,northwest,7.8,No
2017/09/15,11:50,0.351,0.214,0.349,0.331,0.318,0.176,0.104,northwest,5.6,No
2017/09/15,12:00,0.351,0.215,0.350,0.330,0.316,0.175,0.104,northwest,6.9,No
2017/09/15,12:10,0.352,0.216,0.349,0.330,0.317,0.175,0.105,north-northwest,5.5,No
2017/09/15,12:20,0.351,0.215,0.350,0.330,0.316,0.174,0.104,north-northwest,8.3,No
2017/09/15,12:30,0.351,0.215,0.352,0.331,0.316,0.174,0.104,northwest,7.0,No
2017/09/15,12:40,0.351,0.215,0.352,0.329,0.318,0.175,0.105,north-northwest,7.1,No
2017/09/15,12:50,0.350,0.215,0.350,0.329,0.318,0.175,0.105,north-northwest,6.7,No
2017/09/15,13:00,0.352,0.215,0.353,0.331,0.317,0.176,0.104,north,7.0,No
2017/09/15,13:10,0.352,0.216,0.353,0.330,0.317,0.175,0.105,northwest,4.9,No
2017/09/15,13:20,0.353,0.215,0.352,0.331,0.316,0.175,0.104,west,4.8,No
2017/09/15,13:30,0.350,0.216,0.352,0.331,0.319,0.175,0.104,west-northwest,5.7,No
2017/09/15,13:40,0.350,0.215,0.353,0.331,0.318,0.176,0.104,west,4.3,No
2017/09/15,13:50,0.350,0.216,0.354,0.330,0.317,0.176,0.104,northwest,3.7,No
2017/09/15,14:00,0.351,0.216,0.354,0.328,0.319,0.176,0.104,northwest,5.5,No
2017/09/15,14:10,0.352,0.215,0.352,0.330,0.318,0.176,0.104,northwest,5.3,No
2017/09/15,14:20,0.357,0.216,0.352,0.329,0.318,0.176,0.104,northwest,3.6,No
2017/09/15,14:30,0.355,0.215,0.352,0.330,0.317,0.175,0.104,northwest,5.6,No
2017/09/15,14:40,0.354,0.214,0.352,0.329,0.316,0.175,0.103,north-northwest,5.8,No
2017/09/15,14:50,0.352,0.215,0.352,0.329,0.318,0.175,0.103,northwest,4.7,No
2017/09/15,15:00,0.353,0.215,0.351,0.328,0.317,0.175,0.103,northwest,5.9,No
2017/09/15,15:10,0.357,0.215,0.351,0.331,0.318,0.175,0.104,north-northwest,5.5,No
2017/09/15,15:20,0.356,0.214,0.352,0.333,0.315,0.174,0.105,north-northwest,5.0,No
2017/09/15,15:30,0.353,0.216,0.357,0.333,0.315,0.175,0.104,west-northwest,4.5,No
2017/09/15,15:40,0.351,0.218,0.355,0.331,0.316,0.175,0.105,west-northwest,4.7,No
2017/09/15,15:50,0.355,0.217,0.353,0.332,0.317,0.175,0.104,west-northwest,4.2,No
2017/09/15,16:00,0.357,0.215,0.353,0.334,0.316,0.174,0.105,west,3.0,No
2017/09/15,16:10,0.352,0.217,0.357,0.332,0.316,0.175,0.106,west-northwest,3.6,No
2017/09/15,16:20,0.350,0.218,0.355,0.332,0.316,0.175,0.105,northwest,4.5,No
2017/09/15,16:30,0.356,0.216,0.351,0.335,0.316,0.175,0.104,northwest,3.8,No
2017/09/15,16:40,0.356,0.216,0.354,0.331,0.317,0.174,0.105,northwest,3.1,No
2017/09/15,16:50,0.353,0.217,0.356,0.329,0.316,0.175,0.105,northwest,2.1,No
2017/09/15,17:00,0.354,0.218,0.355,0.334,0.315,0.175,0.105,northwest,3.6,No
2017/09/15,17:10,0.358,0.216,0.354,0.334,0.321,0.174,0.104,northwest,3.0,No
2017/09/15,17:20,0.354,0.218,0.356,0.331,0.320,0.175,0.105,west-northwest,3.1,No
2017/09/15,17:30,0.352,0.215,0.354,0.335,0.319,0.175,0.104,west-northwest,3.6,No
2017/09/15,17:40,0.356,0.215,0.354,0.333,0.320,0.175,0.104,west-northwest,4.4,No
2017/09/15,17:50,0.355,0.217,0.356,0.331,0.322,0.176,0.105,west-northwest,4.6,No
2017/09/15,18:00,0.353,0.215,0.354,0.334,0.317,0.175,0.105,west-northwest,5.5,No
2017/09/15,18:10,0.357,0.215,0.356,0.333,0.322,0.175,0.104,west-northwest,5.0,No
2017/09/15,18:20,0.354,0.215,0.355,0.331,0.320,0.176,0.105,northwest,5.2,No
2017/09/15,18:30,0.356,0.217,0.353,0.333,0.317,0.175,0.104,northwest,4.7,No
2017/09/15,18:40,0.356,0.217,0.357,0.331,0.321,0.174,0.105,northwest,5.4,No
2017/09/15,18:50,0.352,0.216,0.354,0.334,0.318,0.175,0.104,northwest,5.6,No
2017/09/15,19:00,0.356,0.217,0.355,0.332,0.317,0.175,0.104,northwest,6.0,No
2017/09/15,19:10,0.354,0.216,0.357,0.330,0.321,0.175,0.105,northwest,6.2,No
2017/09/15,19:20,0.353,0.217,0.353,0.334,0.317,0.174,0.104,northwest,6.2,No
2017/09/15,19:30,0.356,0.216,0.355,0.330,0.321,0.176,0.106,north-northwest,6.1,No
2017/09/15,19:40,0.354,0.216,0.355,0.334,0.318,0.174,0.105,north,5.1,No
2017/09/15,19:50,0.353,0.217,0.354,0.332,0.318,0.175,0.105,north-northeast,8.6,No
2017/09/15,20:00,0.354,0.215,0.355,0.333,0.319,0.173,0.105,north-northeast,6.6,No
2017/09/15,20:10,0.353,0.217,0.353,0.334,0.317,0.175,0.104,north-northeast,4.5,No
2017/09/15,20:20,0.356,0.216,0.357,0.330,0.321,0.175,0.106,north-northeast,3.8,No
2017/09/15,20:30,0.353,0.217,0.353,0.335,0.317,0.175,0.104,north-northeast,2.1,No
2017/09/15,20:40,0.355,0.215,0.357,0.330,0.319,0.175,0.104,north-northeast,3.6,No
2017/09/15,20:50,0.356,0.217,0.354,0.334,0.319,0.175,0.105,northeast,3.8,No
2017/09/15,21:00,0.354,0.216,0.356,0.331,0.319,0.175,0.104,northeast,3.9,No
2017/09/15,21:10,0.356,0.215,0.355,0.331,0.319,0.175,0.105,east-northeast,3.1,No
2017/09/15,21:20,0.352,0.216,0.353,0.333,0.316,0.176,0.104,northeast,3.6,No
2017/09/15,21:30,0.357,0.215,0.356,0.330,0.319,0.175,0.105,east-northeast,3.6,No
2017/09/15,21:40,0.355,0.217,0.353,0.332,0.319,0.174,0.105,east-northeast,3.4,No
2017/09/15,21:50,0.352,0.215,0.355,0.331,0.318,0.176,0.104,northeast,3.1,No
2017/09/15,22:00,0.357,0.217,0.356,0.332,0.318,0.174,0.105,east-northeast,3.1,No
2017/09/15,22:10,0.354,0.216,0.352,0.333,0.317,0.175,0.105,east-northeast,2.8,No
2017/09/15,22:20,0.356,0.217,0.357,0.331,0.319,0.175,0.106,east-northeast,2.5,No
2017/09/15,22:30,0.354,0.216,0.351,0.333,0.318,0.175,0.104,east-northeast,2.2,No
2017/09/15,22:40,0.353,0.217,0.355,0.330,0.320,0.175,0.105,east-northeast,2.3,No
2017/09/15,22:50,0.357,0.216,0.356,0.333,0.317,0.174,0.105,east-northeast,2.1,Yes
2017/09/15,23:00,0.352,0.215,0.354,0.331,0.318,0.176,0.104,northeast,2.2,Yes
2017/09/15,23:10,0.357,0.217,0.355,0.332,0.320,0.174,0.105,east-northeast,0.9,No
2017/09/15,23:20,0.355,0.216,0.353,0.334,0.317,0.175,0.105,east-northeast,1.7,Yes
2017/09/15,23:30,0.353,0.216,0.358,0.331,0.320,0.176,0.105,east,1.1,Yes
2017/09/15,23:40,0.356,0.215,0.353,0.333,0.320,0.176,0.106,east-northeast,2.7,No
2017/09/15,23:50,0.354,0.218,0.357,0.332,0.320,0.176,0.106,northeast,3.5,Yes
